User: anonymous   Login
Location: Unspecified
(0.0000°N, 0.0000°E)
Time: 15:57:28
(UTC+00:00)
Language:

ASTRA 1KR - Orbit

View from above orbital plane
View from above orbital plane
View from above satellite
View from above satellite

Ground track
Ground track

The orbit data is extracted from the following two-line orbital elements,

1 29055U 06012A   18173.83845980  .00000108  00000-0  00000+0 0  9993
2 29055   0.0341 274.8436 0001570 223.3918  93.7371  1.00271956 44500
Epoch (UTC): 22 June 2018 20:07:22
Eccentricity: 0.0001570
inclination: 0.0341°
perigee height: 35779 km
apogee height: 35793 km
right ascension of ascending node: 274.8436°
argument of perigee: 223.3918°
revolutions per day: 1.00271956
mean anomaly at epoch: 93.7371°
orbit number at epoch: 4450

The dashed part of the orbit path shows where the satellite is in the earth's shadow,  

DLR